This demonstration page uses our WeatherBlox Daily Observations layout. Learn more.

39.29038, -76.61219

Hourly Observations for August 5, 2020

Temp ( °F °C ) Dew Point ( °F °C ) Humidity (%) Winds ( mph kmh ) Pressure ( in mb ) Visibility ( mi km ) Precip ( " mm )
12:54 am 00:54 Mostly Clear 72 22.2 69 20.6 91 91 Calm 29.95 1014 10 16.0934 0 0
1:54 am 01:54 Partly Cloudy 71 21.7 68 20 90 90 WSW 3 6 29.96 1015 10 16.0934 0 0
2:54 am 02:54 Partly Cloudy 70 21.1 68 20 93 93 Calm 29.95 1014 10 16.0934 0 0
3:54 am 03:54 Mostly Clear 70 21.1 67 19.4 90 90 Calm 29.96 1015 10 16.0934 0 0
4:54 am 04:54 Mostly Clear 70 21.1 66 18.9 87 87 WSW 5 7 29.97 1015 10 16.0934 0 0
5:54 am 05:54 Mostly Clear 68 20 65 18.3 90 90 W 5 7 29.98 1015 10 16.0934 0 0
6:54 am 06:54 Mostly Sunny 69 20.6 66 18.9 90 90 Calm 30.01 1016 10 16.0934 0 0
7:54 am 07:54 Mostly Sunny 73 22.8 66 18.9 79 79 Calm 30.02 1017 10 16.0934 0 0
8:54 am 08:54 Mostly Sunny 77 25 65 18.3 66 66 Calm 30.05 1018 10 16.0934 0 0
9:54 am 09:54 Mostly Sunny 80 26.7 64 17.8 58 58 Calm 30.06 1018 10 16.0934 0 0
10:54 am 10:54 Mostly Sunny 82 27.8 63 17.2 53 53 Calm 30.06 1018 10 16.0934 0 0
11:54 am 11:54 Mostly Sunny 84 28.9 63 17.2 49 49 VRB 7 11 30.06 1018 10 16.0934 0 0
12:54 pm 12:54 Mostly Sunny 86 30 62 16.7 45 45 Calm 30.05 1018 10 16.0934 0 0
1:54 pm 13:54 Partly Cloudy 88 31.1 62 16.7 42 42 W 8 13 30.04 1017 10 16.0934 0 0
2:54 pm 14:54 Partly Cloudy 88 31.1 62 16.7 42 42 NNW 6 9 30.04 1017 10 16.0934 0 0
3:54 pm 15:54 Partly Cloudy 88 31.1 64 17.8 45 45 W 10 17 30.03 1017 10 16.0934 0 0
4:54 pm 16:54 Mostly Cloudy 87 30.6 63 17.2 45 45 WNW 6 9 30.03 1017 10 16.0934 0 0
5:54 pm 17:54 Mostly Cloudy 87 30.6 63 17.2 45 45 N 7 11 30.01 1016 10 16.0934 0 0
6:54 pm 18:54 Mostly Cloudy 86 30 63 17.2 46 46 NNE 3 6 30.01 1016 10 16.0934 0 0
7:54 pm 19:54 Partly Cloudy 82 27.8 65 18.3 56 56 S 6 9 30.02 1017 10 16.0934 0 0
8:54 pm 20:54 Partly Cloudy 80 26.7 68 20 67 67 SSE 3 6 30.03 1017 10 16.0934 0 0
9:54 pm 21:54 Partly Cloudy 76 24.4 69 20.6 79 79 W 3 6 30.05 1018 10 16.0934 0 0
10:54 pm 22:54 Mostly Cloudy 78 25.6 68 20 71 71 SSE 3 6 30.05 1018 10 16.0934 0 0
11:54 pm 23:54 Mostly Cloudy 76 24.4 68 20 77 77 Calm 30.05 1018 10 16.0934 0 0

Powered by AerisWeather